Stündliche Wetter Warrington

Heute, 27 Oktober, Dienstag

Zeit Temperatur Niederschläge Wind Luftdruck Luftfeuchtigkeit
00:00 +6°C° 0.1 mm 4 m/S 744 mmHg 88%
01:00 +7°C° 0.1 mm 3 m/S 744 mmHg 88%
02:00 +7°C° 0.1 mm 3 m/S 744 mmHg 88%
03:00 +7°C° 0.1 mm 3 m/S 744 mmHg 87%
04:00 +7°C° 0 mm 3 m/S 743 mmHg 87%
05:00 +7°C° 0 mm 3 m/S 743 mmHg 87%
06:00 +7°C° 0 mm 3 m/S 743 mmHg 87%
07:00 +6°C° 0.3 mm 4 m/S 742 mmHg 88%
08:00 +7°C° 0.3 mm 5 m/S 741 mmHg 90%
09:00 +7°C° 0.3 mm 6 m/S 741 mmHg 91%
10:00 +8°C° 0.4 mm 6 m/S 740 mmHg 91%
11:00 +8°C° 0.4 mm 6 m/S 739 mmHg 91%
12:00 +9°C° 0.4 mm 6 m/S 738 mmHg 91%
13:00 +9°C° 0.4 mm 7 m/S 738 mmHg 89%
14:00 +10°C° 0.4 mm 8 m/S 738 mmHg 86%
15:00 +10°C° 0.4 mm 9 m/S 738 mmHg 84%
16:00 +9°C° 0.1 mm 7 m/S 739 mmHg 81%
17:00 +8°C° 0.1 mm 6 m/S 739 mmHg 78%
18:00 +7°C° 0.1 mm 5 m/S 740 mmHg 76%
19:00 +7°C° 0 mm 5 m/S 741 mmHg 77%
20:00 +6°C° 0 mm 5 m/S 741 mmHg 79%
21:00 +6°C° 0 mm 4 m/S 742 mmHg 80%
22:00 +6°C° 0 mm 5 m/S 742 mmHg 80%
23:00 +6°C° 0 mm 5 m/S 742 mmHg 81%

Morgen, 28 Oktober, Mittwoch

Zeit Temperatur Niederschläge Wind Luftdruck Luftfeuchtigkeit
00:00 +6°C° 0 mm 5 m/S 742 mmHg 81%
01:00 +6°C° 0.1 mm 5 m/S 742 mmHg 81%
02:00 +7°C° 0.1 mm 5 m/S 742 mmHg 82%
03:00 +7°C° 0.1 mm 6 m/S 742 mmHg 82%
04:00 +7°C° 0.1 mm 5 m/S 742 mmHg 82%
05:00 +6°C° 0.1 mm 5 m/S 742 mmHg 82%
06:00 +6°C° 0.1 mm 5 m/S 743 mmHg 82%
07:00 +7°C° 0 mm 5 m/S 743 mmHg 80%
08:00 +7°C° 0 mm 5 m/S 743 mmHg 78%
09:00 +8°C° 0 mm 6 m/S 743 mmHg 76%
10:00 +8°C° 0.1 mm 6 m/S 744 mmHg 73%
11:00 +9°C° 0.1 mm 7 m/S 744 mmHg 70%
12:00 +9°C° 0.1 mm 7 m/S 744 mmHg 67%
13:00 +9°C° 0.2 mm 7 m/S 744 mmHg 67%
14:00 +9°C° 0.2 mm 6 m/S 744 mmHg 68%
15:00 +9°C° 0.2 mm 6 m/S 744 mmHg 68%
16:00 +8°C° 0.2 mm 6 m/S 745 mmHg 71%
17:00 +7°C° 0.2 mm 5 m/S 745 mmHg 74%
18:00 +6°C° 0.2 mm 5 m/S 746 mmHg 76%
19:00 +7°C° 0.2 mm 5 m/S 747 mmHg 77%
20:00 +7°C° 0.2 mm 6 m/S 747 mmHg 78%
21:00 +7°C° 0.2 mm 6 m/S 748 mmHg 78%
22:00 +7°C° 0.1 mm 6 m/S 749 mmHg 78%
23:00 +5°C° 0.1 mm 6 m/S 750 mmHg 77%

übermorgen, 29 Oktober, Donnerstag

Zeit Temperatur Niederschläge Wind Luftdruck Luftfeuchtigkeit
00:00 +5°C° 0.1 mm 6 m/S 750 mmHg 77%
01:00 +5°C° 0.1 mm 6 m/S 751 mmHg 77%
02:00 +5°C° 0.1 mm 6 m/S 751 mmHg 77%
03:00 +6°C° 0.1 mm 5 m/S 752 mmHg 77%
04:00 +6°C° 0 mm 5 m/S 753 mmHg 78%
05:00 +6°C° 0 mm 5 m/S 753 mmHg 78%
06:00 +6°C° 0 mm 4 m/S 754 mmHg 79%
07:00 +7°C° 0 mm 4 m/S 754 mmHg 80%
08:00 +7°C° 0 mm 4 m/S 754 mmHg 80%
09:00 +8°C° 0 mm 4 m/S 755 mmHg 81%
10:00 +8°C° 0.5 mm 4 m/S 755 mmHg 83%
11:00 +8°C° 0.5 mm 5 m/S 755 mmHg 86%
12:00 +9°C° 0.5 mm 5 m/S 755 mmHg 89%
13:00 +9°C° 0.3 mm 5 m/S 755 mmHg 88%
14:00 +10°C° 0.3 mm 5 m/S 754 mmHg 87%
15:00 +12°C° 0.3 mm 5 m/S 754 mmHg 87%
16:00 +12°C° 0 mm 5 m/S 754 mmHg 87%
17:00 +12°C° 0 mm 5 m/S 754 mmHg 87%
18:00 +12°C° 0 mm 5 m/S 754 mmHg 87%
19:00 +12°C° 0 mm 5 m/S 754 mmHg 86%
20:00 +12°C° 0 mm 5 m/S 754 mmHg 85%
21:00 +12°C° 0 mm 5 m/S 754 mmHg 85%
22:00 +12°C° 0 mm 5 m/S 754 mmHg 84%
23:00 +13°C° 0 mm 6 m/S 753 mmHg 83%

30 Oktober, Freitag

Zeit Temperatur Niederschläge Wind Luftdruck Luftfeuchtigkeit
00:00 +12°C° 0 mm 7 m/S 753 mmHg 83%
01:00 +13°C° 0 mm 6 m/S 753 mmHg 84%
02:00 +13°C° 0 mm 6 m/S 753 mmHg 85%
03:00 +13°C° 0 mm 6 m/S 753 mmHg 86%
04:00 +14°C° 0 mm 6 m/S 753 mmHg 87%
05:00 +14°C° 0 mm 6 m/S 753 mmHg 88%
06:00 +14°C° 0 mm 6 m/S 753 mmHg 89%
07:00 +14°C° 0 mm 6 m/S 754 mmHg 88%
08:00 +14°C° 0 mm 6 m/S 754 mmHg 88%
09:00 +15°C° 0 mm 6 m/S 754 mmHg 87%
10:00 +15°C° 0 mm 6 m/S 755 mmHg 82%
11:00 +15°C° 0 mm 6 m/S 756 mmHg 77%
12:00 +15°C° 0 mm 6 m/S 756 mmHg 72%
13:00 +15°C° 0 mm 5 m/S 757 mmHg 72%
14:00 +14°C° 0 mm 4 m/S 757 mmHg 73%
15:00 +14°C° 0 mm 4 m/S 758 mmHg 73%
16:00 +13°C° 0 mm 3 m/S 758 mmHg 74%
17:00 +14°C° 0 mm 2 m/S 759 mmHg 75%
18:00 +13°C° 0 mm 1 m/S 759 mmHg 76%
19:00 +13°C° 0 mm 1 m/S 759 mmHg 77%
20:00 +13°C° 0 mm 1 m/S 759 mmHg 78%
21:00 +13°C° 0 mm 1 m/S 759 mmHg 79%
22:00 +13°C° 0.2 mm 2 m/S 759 mmHg 83%
23:00 +13°C° 0.2 mm 2 m/S 758 mmHg 86%

31 Oktober, Samstag

Zeit Temperatur Niederschläge Wind Luftdruck Luftfeuchtigkeit
00:00 +12°C° 0.2 mm 3 m/S 758 mmHg 90%
01:00 +12°C° 0.5 mm 3 m/S 757 mmHg 90%
02:00 +13°C° 0.5 mm 4 m/S 756 mmHg 91%
03:00 +13°C° 0.5 mm 5 m/S 755 mmHg 91%
04:00 +13°C° 0 mm 6 m/S 755 mmHg 90%
05:00 +13°C° 0 mm 6 m/S 754 mmHg 90%
06:00 +12°C° 0 mm 7 m/S 753 mmHg 89%
07:00 +13°C° 0 mm 8 m/S 753 mmHg 87%
08:00 +13°C° 0 mm 8 m/S 752 mmHg 86%
09:00 +13°C° 0 mm 9 m/S 751 mmHg 85%
10:00 +15°C° 0.2 mm 9 m/S 750 mmHg 83%
11:00 +14°C° 0.2 mm 10 m/S 750 mmHg 81%
12:00 +14°C° 0.2 mm 10 m/S 749 mmHg 79%
13:00 +14°C° 0.3 mm 10 m/S 748 mmHg 80%
14:00 +13°C° 0.3 mm 9 m/S 747 mmHg 80%
15:00 +13°C° 0.3 mm 9 m/S 746 mmHg 80%
16:00 +13°C° 0.2 mm 8 m/S 746 mmHg 81%
17:00 +12°C° 0.2 mm 8 m/S 747 mmHg 81%
18:00 +12°C° 0.2 mm 8 m/S 747 mmHg 81%
19:00 +11°C° 0.2 mm 7 m/S 748 mmHg 80%
20:00 +10°C° 0.2 mm 6 m/S 749 mmHg 79%
21:00 +10°C° 0.2 mm 6 m/S 750 mmHg 78%
22:00 +9°C° 0 mm 5 m/S 751 mmHg 80%
23:00 +9°C° 0 mm 5 m/S 751 mmHg 81%

1 November, Sonntag

Zeit Temperatur Niederschläge Wind Luftdruck Luftfeuchtigkeit
00:00 +10°C° 0 mm 4 m/S 751 mmHg 83%
01:00 +9°C° 0 mm 6 m/S 750 mmHg 83%
02:00 +10°C° 0 mm 7 m/S 749 mmHg 83%
03:00 +11°C° 0 mm 8 m/S 749 mmHg 83%
04:00 +11°C° 0.1 mm 8 m/S 748 mmHg 84%
05:00 +12°C° 0.1 mm 8 m/S 747 mmHg 84%
06:00 +12°C° 0.1 mm 8 m/S 747 mmHg 85%
07:00 +13°C° 0.2 mm 9 m/S 746 mmHg 85%
08:00 +13°C° 0.2 mm 9 m/S 746 mmHg 85%
09:00 +13°C° 0.2 mm 9 m/S 746 mmHg 85%
10:00 +15°C° 0.1 mm 9 m/S 746 mmHg 85%
11:00 +15°C° 0.1 mm 9 m/S 745 mmHg 85%
12:00 +16°C° 0.1 mm 8 m/S 745 mmHg 85%
13:00 +16°C° 0.1 mm 8 m/S 745 mmHg 85%
14:00 +16°C° 0.1 mm 8 m/S 745 mmHg 84%
15:00 +16°C° 0.1 mm 8 m/S 744 mmHg 84%
16:00 +16°C° 0.1 mm 8 m/S 745 mmHg 85%
17:00 +16°C° 0.1 mm 7 m/S 745 mmHg 85%
18:00 +16°C° 0.1 mm 7 m/S 745 mmHg 86%
19:00 +15°C° 0.6 mm 6 m/S 746 mmHg 87%
20:00 +14°C° 0.6 mm 6 m/S 747 mmHg 88%
21:00 +14°C° 0.6 mm 5 m/S 747 mmHg 90%
22:00 +13°C° 0.1 mm 5 m/S 748 mmHg 86%
23:00 +13°C° 0.1 mm 4 m/S 749 mmHg 83%
Mehr zeigen

Wir brauchen deine Erlaubnis

Meteoprog und unser Service Anbieter werden persönliche Daten aufbewahren, so wie Cookies, Geräte Bezeichnung oder ähnliche Technologien von deinem Gerät und Prozess, so wie Persönliche Daten Inhalte und Werbungen, genauso wie social Media und den Verkehr zu analysieren.

  • Aufbewahrung und/oder Zugang zu deiner Geräte Informationen.

    Cookies, Geräte Bezeichnung oder andere Informationen, können aufbewahrt oder Zugang zu deinem Gerät erhalten, für den Grund, der oben angegeben wird.

  • Personalisierte Werbung und Inhalte, Messungen, Einblick in das Publikum und Produkt Entwicklung.

    Werbungen und Inhalte können personalisiert werden, basierend auf ein Profil. Mehr Daten können besser personalisierte Werbungen und Inhalte hinzufügen. Werbung und Inhalte können gezeigt und gemessen werden. Einblicke über das Publikum, welche die Werbung gesehen haben und den Inhalt, können abgeleitet werden. So wie Daten können genutzt werden, um es zu verbessern oder die Benutzer Erfahrung zu verbessern das System und die Software.

Wenn du “Ich stimme zu” klickst, erlaubst du uns, die Cookies zu benutzen die Geräte Bezeichnung, den Web oder ähnliche Technologien zu benutzen. Deine Settings, können in deinem Gerät bei deinem Browser geändert werden.

Für den bestimmten Zweck, berechtigten Interessen beruhen darauf, mehr als auf den Inhalt. Du kannst mehr darüber in unseren Privaten und Cookie Politik lesen.